When you browse on this site, cookies collect data to enhance your experience and personalize the content and advertising you see.
Visit our Privacy Policy to learn more. By continuing to use the site, you agree to this use of cookies and data.
  • In Hungary
  • List of Countries
  • For 7 days
  • Water Temperature
  • Weather Map
  • News
  • Weather Widgets
  • user-avatar
    Login

    Hourly Weather Krezel

    Today, 20 September, Friday

    Time Temperature Precipitation Wind Pressure Humidity
    00:00 +9°C° 0 mm 3 mps 765 mmHg 76%
    01:00 +9°C° 0 mm 2 mps 765 mmHg 77%
    02:00 +8°C° 0 mm 2 mps 765 mmHg 79%
    03:00 +8°C° 0 mm 2 mps 765 mmHg 81%
    04:00 +8°C° 0 mm 2 mps 765 mmHg 83%
    05:00 +8°C° 0 mm 3 mps 765 mmHg 84%
    06:00 +9°C° 0 mm 3 mps 765 mmHg 85%
    07:00 +9°C° 0 mm 3 mps 765 mmHg 86%
    08:00 +10°C° 0.1 mm 4 mps 765 mmHg 81%
    09:00 +12°C° 0.1 mm 4 mps 765 mmHg 76%
    10:00 +13°C° 0.1 mm 5 mps 765 mmHg 71%
    11:00 +13°C° 0 mm 5 mps 765 mmHg 71%
    12:00 +13°C° 0 mm 5 mps 764 mmHg 71%
    13:00 +13°C° 0 mm 5 mps 764 mmHg 71%
    14:00 +13°C° 0 mm 5 mps 764 mmHg 73%
    15:00 +13°C° 0 mm 5 mps 763 mmHg 75%
    16:00 +13°C° 0 mm 6 mps 763 mmHg 77%
    17:00 +13°C° 0 mm 5 mps 763 mmHg 79%
    18:00 +13°C° 0 mm 5 mps 763 mmHg 81%
    19:00 +13°C° 0 mm 4 mps 763 mmHg 83%
    20:00 +13°C° 0 mm 4 mps 763 mmHg 85%
    21:00 +13°C° 0 mm 4 mps 763 mmHg 86%
    22:00 +12°C° 0 mm 5 mps 762 mmHg 88%
    23:00 +12°C° 0 mm 4 mps 762 mmHg 91%

    Tomorrow, 21 September, Saturday

    Time Temperature Precipitation Wind Pressure Humidity
    00:00 +11°C° 0 mm 4 mps 762 mmHg 93%
    01:00 +11°C° 0 mm 4 mps 762 mmHg 96%
    02:00 +11°C° 0 mm 4 mps 762 mmHg 96%
    03:00 +11°C° 0 mm 4 mps 762 mmHg 95%
    04:00 +11°C° 0 mm 4 mps 762 mmHg 95%
    05:00 +12°C° 0 mm 4 mps 762 mmHg 93%
    06:00 +12°C° 0 mm 4 mps 761 mmHg 92%
    07:00 +12°C° 0 mm 4 mps 761 mmHg 90%
    08:00 +13°C° 0 mm 4 mps 761 mmHg 88%
    09:00 +13°C° 0 mm 4 mps 762 mmHg 86%
    10:00 +13°C° 0 mm 4 mps 762 mmHg 84%
    11:00 +14°C° 0 mm 4 mps 762 mmHg 80%
    12:00 +15°C° 0 mm 4 mps 762 mmHg 76%
    13:00 +17°C° 0 mm 3 mps 761 mmHg 72%
    14:00 +17°C° 0 mm 3 mps 761 mmHg 70%
    15:00 +18°C° 0 mm 2 mps 761 mmHg 68%
    16:00 +18°C° 0 mm 2 mps 761 mmHg 66%
    17:00 +18°C° 0 mm 1 mps 761 mmHg 72%
    18:00 +15°C° 0 mm 1 mps 760 mmHg 79%
    19:00 +13°C° 0 mm 0 mps 760 mmHg 85%
    20:00 +13°C° 0 mm 1 mps 760 mmHg 86%
    21:00 +13°C° 0 mm 1 mps 760 mmHg 86%
    22:00 +13°C° 0 mm 2 mps 760 mmHg 87%
    23:00 +13°C° 0 mm 2 mps 760 mmHg 87%

    Day after tomorrow, 22 September, Sunday

    Time Temperature Precipitation Wind Pressure Humidity
    00:00 +12°C° 0 mm 2 mps 760 mmHg 88%
    01:00 +12°C° 0 mm 2 mps 760 mmHg 88%
    02:00 +12°C° 0 mm 2 mps 760 mmHg 88%
    03:00 +12°C° 0 mm 2 mps 760 mmHg 89%
    04:00 +12°C° 0 mm 2 mps 759 mmHg 89%
    05:00 +12°C° 0 mm 2 mps 759 mmHg 87%
    06:00 +12°C° 0 mm 2 mps 759 mmHg 85%
    07:00 +13°C° 0 mm 2 mps 759 mmHg 83%
    08:00 +15°C° 0 mm 2 mps 759 mmHg 75%
    09:00 +17°C° 0 mm 2 mps 759 mmHg 67%
    10:00 +19°C° 0 mm 2 mps 759 mmHg 59%
    11:00 +20°C° 0 mm 2 mps 758 mmHg 54%
    12:00 +21°C° 0 mm 2 mps 758 mmHg 50%
    13:00 +23°C° 0 mm 2 mps 758 mmHg 45%
    14:00 +23°C° 0 mm 2 mps 757 mmHg 47%
    15:00 +23°C° 0 mm 2 mps 757 mmHg 49%
    16:00 +23°C° 0 mm 2 mps 756 mmHg 50%
    17:00 +20°C° 0 mm 3 mps 756 mmHg 56%
    18:00 +18°C° 0 mm 3 mps 756 mmHg 61%
    19:00 +16°C° 0 mm 3 mps 756 mmHg 67%
    20:00 +16°C° 0 mm 3 mps 756 mmHg 68%
    21:00 +14°C° 0 mm 3 mps 756 mmHg 70%
    22:00 +13°C° 0 mm 3 mps 756 mmHg 72%
    23:00 +13°C° 0 mm 3 mps 755 mmHg 71%

    23 September, Monday

    Time Temperature Precipitation Wind Pressure Humidity
    00:00 +13°C° 0 mm 3 mps 755 mmHg 70%
    01:00 +12°C° 0 mm 3 mps 755 mmHg 69%
    02:00 +12°C° 0 mm 3 mps 755 mmHg 68%
    03:00 +12°C° 0 mm 3 mps 754 mmHg 67%
    04:00 +12°C° 0 mm 3 mps 754 mmHg 65%
    05:00 +12°C° 0 mm 3 mps 754 mmHg 67%
    06:00 +12°C° 0 mm 3 mps 754 mmHg 68%
    07:00 +12°C° 0 mm 4 mps 754 mmHg 70%
    08:00 +14°C° 0 mm 4 mps 754 mmHg 64%
    09:00 +17°C° 0 mm 4 mps 754 mmHg 59%
    10:00 +20°C° 0 mm 4 mps 754 mmHg 54%
    11:00 +20°C° 0 mm 4 mps 753 mmHg 51%
    12:00 +21°C° 0 mm 4 mps 753 mmHg 48%
    13:00 +22°C° 0 mm 4 mps 753 mmHg 46%
    14:00 +22°C° 0 mm 3 mps 753 mmHg 48%
    15:00 +22°C° 0 mm 3 mps 753 mmHg 50%
    16:00 +22°C° 0 mm 3 mps 753 mmHg 51%
    17:00 +20°C° 0 mm 3 mps 753 mmHg 57%
    18:00 +18°C° 0 mm 3 mps 753 mmHg 63%
    19:00 +16°C° 0 mm 2 mps 753 mmHg 68%
    20:00 +15°C° 0 mm 2 mps 753 mmHg 68%
    21:00 +15°C° 0 mm 2 mps 753 mmHg 68%
    22:00 +14°C° 0 mm 2 mps 754 mmHg 68%
    23:00 +14°C° 0 mm 2 mps 754 mmHg 69%

    24 September, Tuesday

    Time Temperature Precipitation Wind Pressure Humidity
    00:00 +14°C° 0 mm 2 mps 754 mmHg 71%
    01:00 +13°C° 0 mm 2 mps 754 mmHg 72%
    02:00 +13°C° 0 mm 1 mps 754 mmHg 74%
    03:00 +13°C° 0 mm 1 mps 754 mmHg 76%
    04:00 +12°C° 0 mm 1 mps 754 mmHg 78%
    05:00 +12°C° 0 mm 1 mps 754 mmHg 78%
    06:00 +13°C° 0 mm 1 mps 755 mmHg 79%
    07:00 +13°C° 0 mm 2 mps 755 mmHg 79%
    08:00 +15°C° 0 mm 2 mps 755 mmHg 73%
    09:00 +17°C° 0 mm 2 mps 755 mmHg 68%
    10:00 +19°C° 0 mm 2 mps 756 mmHg 62%
    11:00 +20°C° 0 mm 2 mps 756 mmHg 59%
    12:00 +20°C° 0 mm 2 mps 756 mmHg 56%
    13:00 +21°C° 0 mm 2 mps 755 mmHg 53%
    14:00 +22°C° 0 mm 1 mps 755 mmHg 54%
    15:00 +22°C° 0 mm 1 mps 755 mmHg 55%
    16:00 +22°C° 0 mm 1 mps 755 mmHg 56%
    17:00 +20°C° 0 mm 1 mps 755 mmHg 61%
    18:00 +19°C° 0 mm 1 mps 755 mmHg 66%
    19:00 +18°C° 0 mm 1 mps 755 mmHg 71%
    20:00 +16°C° 0 mm 2 mps 755 mmHg 71%
    21:00 +16°C° 0 mm 2 mps 755 mmHg 72%
    22:00 +16°C° 0 mm 2 mps 755 mmHg 72%
    23:00 +15°C° 0 mm 2 mps 754 mmHg 72%

    25 September, Wednesday

    Time Temperature Precipitation Wind Pressure Humidity
    00:00 +15°C° 0 mm 2 mps 754 mmHg 73%
    01:00 +15°C° 0 mm 2 mps 754 mmHg 74%
    02:00 +15°C° 0 mm 2 mps 753 mmHg 77%
    03:00 +15°C° 0 mm 2 mps 753 mmHg 80%
    04:00 +15°C° 0 mm 2 mps 753 mmHg 83%
    05:00 +15°C° 0 mm 2 mps 752 mmHg 85%
    06:00 +15°C° 0 mm 2 mps 752 mmHg 88%
    07:00 +14°C° 0 mm 3 mps 752 mmHg 90%
    08:00 +16°C° 0.2 mm 3 mps 752 mmHg 87%
    09:00 +17°C° 0.2 mm 3 mps 752 mmHg 83%
    10:00 +18°C° 0.2 mm 3 mps 751 mmHg 80%
    11:00 +17°C° 0.8 mm 3 mps 751 mmHg 82%
    12:00 +17°C° 0.8 mm 2 mps 751 mmHg 83%
    13:00 +17°C° 0.8 mm 2 mps 750 mmHg 85%
    14:00 +16°C° 0.3 mm 2 mps 750 mmHg 86%
    15:00 +16°C° 0.3 mm 2 mps 750 mmHg 87%
    16:00 +16°C° 0.3 mm 2 mps 750 mmHg 89%
    17:00 +15°C° 0.1 mm 2 mps 749 mmHg 89%
    18:00 +15°C° 0.1 mm 2 mps 749 mmHg 90%
    19:00 +15°C° 0.1 mm 2 mps 749 mmHg 91%
    20:00 +15°C° 0 mm 2 mps 749 mmHg 91%
    21:00 +14°C° 0 mm 2 mps 749 mmHg 92%
    22:00 +14°C° 0 mm 2 mps 749 mmHg 92%
    23:00 +14°C° 0 mm 2 mps 749 mmHg 93%
    Show more